Theta_e
328 335 350 349 349 350 352 350 348 349 351 351 350 349 347 347 347 347 346 345 343 343 344 347 347 348 348 348 348 347 347 348 348 348 349 348 348 346 347 347 346 342 347
326 331 348 350 349 350 351 349 350 350 349 350 350 347 346 346 346 346 345 344 343 342 342 343 345 347 346 345 348 348 348 347 346 346 345 345 346 346 346 346 345 342 346
325 332 344 350 350 349 349 349 350 350 348 349 349 348 346 346 346 346 346 345 344 343 343 343 346 346 346 347 347 347 347 346 344 344 342 337 339 345 346 344 344 344 344
330 333 342 350 350 348 347 349 350 349 349 348 348 347 347 346 345 345 346 347 347 346 345 345 345 347 346 345 346 346 346 344 343 340 335 336 338 344 344 343 343 343 342
339 340 342 348 350 348 348 348 348 348 348 348 348 347 348 347 346 346 347 347 347 345 345 345 345 347 346 347 345 345 344 342 340 334 331 332 335 341 342 341 340 340 340
333 337 342 346 346 348 347 346 346 346 346 346 349 346 347 346 347 346 347 349 349 348 346 345 346 347 346 346 345 344 343 339 333 328 331 336 332 341 340 339 337 339 338
327 332 334 343 344 345 346 346 346 345 345 345 346 346 346 347 347 346 345 346 347 346 345 344 345 345 345 345 344 343 341 336 327 327 328 329 332 338 338 336 337 337 336
325 327 330 333 338 342 344 346 344 345 346 346 347 347 347 347 347 347 345 344 345 346 345 344 344 345 344 344 342 342 339 333 327 325 326 327 338 337 336 336 336 335 334
316 320 324 329 330 334 337 341 343 343 343 344 344 345 345 346 348 347 346 344 343 345 346 346 345 344 344 344 342 340 337 333 324 325 328 328 340 337 338 339 337 336 335
311 312 313 317 322 329 331 334 335 336 339 340 342 342 340 339 342 345 344 344 343 342 344 344 344 343 343 342 340 338 336 332 324 326 332 332 339 340 339 338 338 336 336
310 309 309 310 312 316 319 324 330 330 333 335 336 335 335 336 337 337 338 339 341 341 340 340 341 342 339 338 338 336 332 324 324 329 331 338 338 335 333 333 335 335 334
305 307 307 308 309 311 314 313 316 323 326 331 333 333 333 333 333 337 333 335 340 340 339 341 342 340 336 332 331 332 325 324 327 329 331 337 336 335 334 336 335 333 331
304 305 307 307 308 308 309 309 309 312 314 321 329 332 333 334 331 332 330 331 334 333 334 335 334 332 328 329 326 324 324 324 324 325 330 337 336 338 338 336 334 332 330
303 304 306 307 307 307 308 309 309 309 310 311 315 322 330 331 331 331 330 328 331 329 328 329 329 328 327 326 326 323 323 324 323 325 326 333 336 337 337 335 333 331 329
304 304 305 306 306 308 308 308 310 310 310 310 311 314 323 326 329 330 328 329 327 327 326 326 326 327 325 324 324 323 322 323 323 325 325 329 333 336 335 334 331 330 329
304 304 306 307 307 307 307 307 308 309 311 311 311 312 316 322 323 323 326 325 325 326 325 324 324 325 325 323 323 322 322 322 322 325 327 328 331 333 334 333 332 331 328
303 305 306 307 306 306 306 306 307 308 310 310 311 312 314 320 320 320 324 323 324 325 321 322 324 324 324 324 323 324 323 322 324 324 326 327 329 329 332 333 331 330 329
304 304 305 306 304 304 304 304 305 306 307 308 310 311 312 314 318 319 322 323 324 323 321 319 321 321 321 320 320 321 322 324 324 324 324 325 326 327 330 332 331 330 329
303 304 303 304 304 303 303 304 304 304 304 305 308 308 310 312 315 313 317 318 320 323 323 322 322 322 319 317 318 316 319 322 323 324 323 325 325 324 324 328 328 328 329
303 304 304 304 303 303 302 302 302 302 303 304 306 307 308 310 311 311 313 315 317 320 321 320 321 319 317 316 314 312 313 317 322 323 323 324 324 323 323 326 325 324 326
303 303 302 303 302 302 301 300 299 300 300 301 304 305 306 307 309 309 309 312 314 317 318 319 319 317 312 312 309 309 309 310 313 317 320 321 321 322 323 323 323 321 323
300 301 301 302 302 301 301 300 300 299 300 300 302 303 305 305 307 308 308 310 312 316 317 317 318 313 311 311 310 309 306 309 309 309 313 318 318 318 321 322 321 318 319
299 298 300 300 301 301 300 301 300 299 299 298 300 302 303 304 305 307 307 311 312 313 315 315 316 314 310 310 312 310 304 304 305 305 305 308 314 316 318 319 319 316 316
297 298 298 298 300 301 299 298 296 295 295 297 298 300 302 303 304 305 307 309 313 311 312 312 316 316 314 310 311 311 309 307 305 302 303 304 305 309 311 315 316 315 312
296 296 297 297 297 298 297 297 295 294 295 297 297 297 298 302 304 305 306 308 309 310 312 313 312 314 315 313 312 308 306 304 305 303 301 301 301 303 304 308 310 309 309
295 295 296 295 295 295 295 295 294 294 294 294 295 296 298 299 301 303 305 304 307 310 310 311 313 314 314 314 313 309 307 305 304 303 300 300 303 301 302 303 304 305 305
Wind_Speed
3 5 4 3 5 7 7 5 4 5 7 11 11 11 11 11 11 11 10 10 9 9 10 9 9 11 12 13 14 14 15 14 14 13 12 13 14 15 15 15 13 11 18
6 6 7 5 5 8 7 5 5 5 5 8 11 10 10 10 10 10 9 9 9 8 9 9 9 10 11 12 14 15 15 14 15 13 11 10 12 15 16 16 16 14 18
6 5 5 6 4 5 6 6 5 5 5 5 8 10 10 9 9 8 8 8 8 9 8 7 8 10 10 13 14 16 16 15 15 15 13 5 5 16 17 16 17 18 18
6 5 6 9 6 5 5 6 6 6 5 4 5 6 9 9 8 7 6 6 6 7 7 7 6 11 11 10 14 18 17 17 15 13 6 5 6 15 15 16 18 17 17
8 4 6 9 8 6 6 5 5 6 6 5 5 5 6 8 8 7 6 7 5 5 6 7 9 12 12 13 15 18 18 16 11 9 6 6 4 11 14 15 15 15 14
12 12 4 7 7 6 5 4 4 4 6 6 6 6 6 5 7 7 6 6 7 6 8 9 11 13 12 13 15 15 16 14 10 6 6 8 5 13 13 13 11 13 13
10 10 11 9 1 3 4 4 2 2 3 4 5 6 6 6 7 6 5 6 7 8 9 10 9 12 13 13 13 14 12 10 6 5 6 6 6 10 11 10 10 11 12
9 9 8 10 14 10 7 1 2 3 4 5 5 6 7 8 9 8 7 6 8 9 9 10 10 11 13 13 12 14 11 8 5 4 5 5 9 11 10 9 10 10 11
9 9 8 7 9 13 16 12 8 8 7 6 5 6 7 8 8 10 9 10 9 10 10 9 10 10 11 13 13 11 11 8 5 2 3 3 7 10 11 15 15 13 12
9 8 8 8 8 7 7 14 14 13 12 11 9 6 6 6 6 8 10 11 11 9 10 10 9 10 10 11 10 9 10 10 5 4 2 4 15 17 15 17 18 17 18
7 8 7 8 7 7 8 8 9 11 12 11 9 9 7 4 5 6 6 11 12 10 10 10 11 9 7 11 11 9 10 4 5 3 2 11 14 13 13 14 14 16 17
6 6 6 7 7 7 6 6 6 7 6 6 6 7 4 5 5 4 6 11 11 10 7 7 10 9 6 3 3 7 3 5 4 3 3 11 14 13 14 19 18 16 16
3 5 7 6 6 7 6 4 3 3 4 4 6 6 4 3 4 3 2 3 3 6 3 5 4 3 5 4 4 3 4 4 2 2 4 9 14 17 19 20 21 17 16
5 5 6 8 7 7 4 4 4 4 4 4 5 7 4 3 3 2 2 3 3 3 3 2 1 3 4 5 6 5 5 4 3 3 3 12 15 17 18 18 17 18 16
7 6 7 7 7 6 6 5 4 4 4 4 4 5 4 4 3 3 2 2 4 4 2 2 2 2 3 4 4 5 5 5 5 3 3 10 13 16 17 18 16 16 17
5 7 6 7 7 6 6 7 5 5 5 4 4 5 6 3 3 2 1 2 1 7 5 4 3 3 4 4 5 5 5 5 5 6 4 6 12 15 17 19 19 17 16
5 5 7 7 7 7 7 6 5 4 5 5 5 6 7 5 4 4 1 2 2 4 9 6 6 4 5 7 7 7 8 7 5 6 5 6 6 13 16 19 20 19 18
6 7 6 7 7 7 7 5 4 5 4 4 4 4 7 7 6 4 3 2 2 2 4 5 7 7 5 2 2 3 4 5 6 6 5 4 5 6 13 18 19 21 20
6 7 7 7 7 7 6 5 5 6 4 5 4 4 7 6 7 5 4 3 4 4 4 6 7 6 4 2 3 3 3 4 6 5 6 8 8 7 5 14 15 16 18
7 7 7 6 7 7 4 4 3 4 4 5 4 6 7 6 6 5 4 5 4 5 4 3 5 2 1 3 1 2 3 2 4 6 6 4 7 9 8 8 8 9 15
8 9 8 9 8 6 6 7 3 6 4 4 4 8 7 7 7 6 4 4 3 6 7 6 2 4 3 4 3 2 1 5 2 2 3 4 6 8 8 8 7 6 9
8 7 8 8 8 7 6 4 3 3 3 3 4 5 6 7 7 6 6 6 4 6 7 8 6 2 1 4 2 1 3 2 1 2 1 4 5 3 6 8 10 8 8
7 6 7 6 6 6 7 5 5 3 4 4 8 7 6 7 7 6 7 6 5 4 6 8 8 8 5 5 5 3 3 4 3 2 2 1 5 4 4 6 8 8 8
5 5 6 7 6 7 7 7 6 5 6 4 7 7 9 9 8 6 7 7 6 4 4 5 7 6 4 4 4 4 0 1 3 0 2 0 2 3 3 3 6 6 6
5 5 5 7 7 6 7 6 5 5 4 6 7 10 9 9 10 8 6 6 6 4 4 5 6 8 6 6 6 2 3 2 1 2 2 2 2 1 1 2 2 4 3
4 5 5 6 5 6 6 6 6 7 8 8 9 8 8 10 10 10 7 6 8 7 6 5 6 8 8 8 6 4 4 4 3 3 3 1 2 1 2 1 3 4 2
Wind_Direction
322 318 213 152 142 155 163 170 157 149 149 135 128 124 123 123 122 119 116 113 113 115 118 126 126 122 118 117 120 118 114 106 99 90 89 101 104 105 102 97 89 95 94
287 290 245 161 156 155 152 163 151 155 157 152 139 137 133 129 128 127 126 123 125 127 124 131 135 133 140 134 121 117 111 108 98 88 87 90 105 110 105 101 95 93 87
275 275 211 166 155 154 152 147 150 157 166 161 152 148 145 142 140 136 140 138 139 139 139 144 144 140 137 147 136 127 118 111 103 95 91 79 103 111 107 106 102 95 92
283 235 196 177 158 139 149 146 158 161 165 170 171 175 155 150 149 146 144 134 158 158 157 159 172 135 131 137 137 122 119 114 106 96 81 77 93 110 106 105 96 90 92
360 220 188 176 162 157 140 145 163 172 169 174 179 185 177 167 165 159 158 152 149 152 181 163 151 134 131 130 128 127 126 120 109 101 101 95 90 105 101 93 86 98 96
19 13 252 174 172 173 157 141 143 171 188 185 186 193 196 203 187 182 156 148 141 143 143 143 141 141 135 137 136 138 136 128 115 114 111 111 104 110 104 106 113 108 103
32 20 23 14 191 188 174 164 159 160 176 186 184 189 201 205 214 218 183 164 158 155 147 142 149 147 143 146 148 145 143 133 128 123 123 124 128 124 120 123 123 119 112
43 32 29 18 34 22 18 323 218 225 229 223 204 206 211 212 219 215 206 188 175 171 166 159 161 161 159 156 151 149 139 135 121 135 143 148 148 145 137 128 135 135 125
37 37 22 11 6 33 24 27 10 358 326 298 267 247 242 232 229 218 201 196 192 186 175 178 175 178 171 167 151 150 155 146 141 148 160 151 157 141 140 127 113 116 119
32 31 20 22 18 18 32 18 32 38 24 3 321 291 275 262 249 236 207 197 194 195 190 191 190 192 186 171 155 151 152 142 149 182 145 144 139 137 131 126 121 119 114
45 33 16 19 23 18 35 19 16 9 18 15 4 339 314 268 257 242 208 200 187 186 194 195 207 208 202 165 153 161 148 154 155 180 158 168 148 148 148 144 130 128 122
34 26 28 30 20 17 25 19 19 8 357 357 356 340 312 281 257 240 210 201 196 186 176 211 204 197 152 142 145 151 154 165 164 173 170 179 157 157 159 133 133 136 128
36 21 22 26 27 23 16 7 11 10 4 342 335 302 316 331 275 270 206 196 213 185 161 182 178 150 153 155 143 163 178 179 161 173 200 192 169 159 155 145 145 142 139
62 42 22 16 19 24 22 24 9 7 359 356 345 340 338 342 320 274 229 211 178 194 160 111 125 152 160 159 156 177 192 182 176 187 241 201 184 174 165 156 152 149 147
63 44 28 31 21 10 22 7 13 9 3 343 352 343 337 346 348 312 292 286 158 131 95 62 95 191 177 170 187 200 191 197 192 185 205 224 195 180 174 163 162 155 151
72 43 35 29 21 21 14 9 360 354 353 3 2 347 339 347 344 7 128 213 302 100 156 76 304 200 210 195 194 219 210 222 198 196 203 212 213 181 179 166 161 160 161
73 56 36 31 21 22 11 4 357 355 358 355 350 353 356 347 346 335 239 204 152 165 131 185 203 256 242 202 205 210 191 201 216 205 191 193 206 183 178 177 164 164 164
74 63 47 33 19 18 6 358 354 355 353 346 347 347 354 356 343 334 300 215 156 170 177 188 201 223 230 256 252 223 208 199 198 206 181 182 163 173 176 185 174 168 169
67 57 37 26 23 8 1 353 351 352 357 347 349 349 346 351 349 346 314 252 174 198 209 206 214 222 208 219 233 256 185 198 199 197 187 184 165 166 167 184 174 175 170
46 46 39 28 16 5 354 345 334 340 348 348 352 353 343 339 341 349 326 298 245 204 209 202 219 170 193 186 140 243 326 253 201 204 190 185 174 167 155 160 167 178 177
37 39 28 24 8 18 11 2 348 354 337 344 348 340 339 337 334 329 314 297 258 245 226 197 223 179 188 180 113 4 55 298 156 163 166 162 170 171 163 160 172 173 178
37 26 22 20 14 17 10 355 338 316 319 303 321 319 324 328 324 324 313 300 271 252 245 227 191 139 135 176 208 128 225 207 266 111 235 154 149 152 175 176 172 175 175
34 13 18 9 9 16 7 359 353 325 333 343 345 330 326 318 313 313 308 299 287 240 233 229 220 181 179 195 204 200 196 194 152 332 143 353 143 170 172 190 182 179 175
16 6 8 7 7 10 2 11 10 354 342 322 327 323 322 319 308 310 308 310 293 267 232 219 217 202 183 190 225 206 353 122 159 116 18 177 325 175 158 187 177 182 163
14 10 7 4 7 357 357 0 348 340 312 313 321 327 328 325 314 312 315 312 310 280 253 221 218 207 192 215 209 202 132 165 120 124 165 189 259 15 72 148 152 139 168
7 11 1 6 350 353 351 341 339 329 326 330 331 324 339 326 320 315 316 323 313 308 271 239 227 217 205 210 209 199 178 156 188 161 136 161 217 173 130 149 124 138 134